Flag for Germany Weather past 2 weeks in Amberg, Bavaria, Germany

Now
64 °F

Passing clouds.


Feels Like: 64 °F
Forecast: 48 / 67 °F
Wind: 1 mph from North

Location: Hohenfels

Current Time: Aug 22, 2014 at 12:43:54 PM

Latest Report: Aug 22, 2014 at 11:58 AM


Visibility: N/A

Pressure: 30.02 "Hg

Humidity: 49%

Dew point: 45 °F

Location of AmbergLocation

Historic Weather in Amberg — Graph

°F

Amberg temperature yesterday

Maximum temperature yesterday: 66 °F (at 2:58 PM)
Minimum temperature yesterday: 50 °F (at 4:58 AM)
Average temperature yesterday: 57 °F

Past Weeks' High & Low Weather Summary

 TemperatureHumidityPressure
High82 °F (Aug 10, 2:58 PM)100% (Aug 8, 5:58 AM)30.14 "Hg (Aug 8, 5:58 AM)
Low43 °F (Aug 22, 5:58 AM)37% (Aug 10, 4:58 PM)29.70 "Hg (Aug 13, 3:58 PM)
Average61 °F75%29.95 "Hg
* Reported Aug 7 10:58 AM — Aug 22 10:58 AM, Amberg, Weather by CustomWeather, © 2014

Note: Actual official high and low records may vary slightly from our data, if they occured in-between our weather recording intervals... More about our weather records

Advertising

Amberg weather history for previous 24 hours

 ConditionsComfort  
Time TempWeatherWind HumidityBarometerVisibility
10:58 AM
Aug 22
59 °FPartly sunny.2 mph68%30.04 "HgN/A
9:58 AM55 °FOvercast.1 mph72%30.03 "HgN/A
8:58 AM52 °FOvercast.No wind82%30.03 "HgN/A
7:58 AM46 °FOvercast.No wind87%30.03 "HgN/A
6:58 AM43 °FPassing clouds.No wind93%30.02 "HgN/A
5:58 AM43 °FClear.3 mph93%30.02 "HgN/A
4:58 AM45 °FPassing clouds.2 mph87%30.03 "HgN/A
3:58 AM45 °FPassing clouds.3 mph93%30.03 "HgN/A
2:58 AM46 °FPassing clouds.2 mph87%30.03 "HgN/A
1:58 AM48 °FPassing clouds.No wind82%30.04 "HgN/A
12:58 AM50 °FOvercast.No wind76%30.04 "HgN/A
11:58 PM
Aug 21
50 °FOvercast.2 mph82%30.05 "HgN/A
10:58 PM50 °FOvercast.1 mph82%30.05 "HgN/A
9:58 PM52 °FPassing clouds.3 mph72%30.04 "HgN/A
8:58 PM54 °FSunny.3 mph72%30.04 "HgN/A
7:58 PM61 °FSunny.2 mph55%30.02 "HgN/A
6:58 PM64 °FSunny.3 mph43%30.02 "HgN/A
5:58 PM64 °FSunny.3 mph43%30.02 "HgN/A
4:58 PM64 °FPartly sunny.7 mph43%30.03 "HgN/A
3:58 PM66 °FPassing clouds.5 mph40%30.03 "HgN/A
2:58 PM66 °FSunny.9 mph37%30.04 "HgN/A
1:58 PM64 °FPassing clouds.8 mph43%30.06 "HgN/A
12:58 PM63 °FBroken clouds.8 mph49%30.07 "HgN/A
Weather by CustomWeather, © 2014

See weather overviewHow to use our weather pages